Regional Weather Roundup
Issued by NWS Albany, NY

Home | Current Version | Previous Version | Text Only | Print | Product List | Glossary On
Versions: 1 2 3 4 5 6 7 8 9 10 11 12 13 14 15 16 17 18 19 20 21 22 23 24 25 26 27 28 29 30 31 32 33 34 35 36 37 38 39 40 41 42 43 44 45 46 47 48 49 50
000
ASUS41 KALY 250610
RWRALY

NEW YORK STATE HOURLY WEATHER ROUNDUP
NATIONAL WEATHER SERVICE ALBANY NY
200 AM EDT MON MAY 25 2015

NOTE: "FAIR" INDICATES FEW OR NO CLOUDS BELOW 12,000 FEET WITH NO
SIGNIFICANT WEATHER AND/OR NO OBSTRUCTIONS TO VISIBILITY.

NYZ032-033-038>043-046>054-057>066-NYZ062>081-250700-
EAST


CITY           SKY/WX    TMP DP  RH WIND       PRES   REMARKS
ALBANY         CLOUDY    64  41  42 S9        30.20S
GLENS FALLS    MOCLDY    60  46  59 S7        30.18
POUGHKEEPSIE   CLOUDY    58  51  78 CALM      30.22F
NEWBURGH       CLEAR     61  48  63 CALM      30.25S
MONTGOMERY     CLOUDY    57  51  80 CALM      30.23S
WHITE PLAINS   CLOUDY    58  52  80 CALM      30.25S
ISLIP          CLOUDY    59  52  77 SW10      30.25F
NEW YORK CITY  MOCLDY    67  50  54 S7        30.25S
CENTRAL PARK   MOCLDY    66  50  56 W5        30.28S
$$

NYZ005>009-017-018-044>046-055-056-250700-
CENTRAL


CITY           SKY/WX    TMP DP  RH WIND       PRES   REMARKS
FULTON         CLOUDY    59  51  75 CALM      30.16S
SYRACUSE       CLOUDY    63  47  55 SE5       30.16F
ROME           CLOUDY    55  47  74 CALM      30.19F
ELMIRA         CLOUDY    56  52  86 CALM      30.21S
BINGHAMTON     CLOUDY    63  45  51 S6        30.23S
MONTICELLO     CLOUDY    54  45  71 CALM      30.27F
$$

NYZ026>034-041>043-250700-
NORTH


CITY           SKY/WX    TMP DP  RH WIND       PRES   REMARKS
WATERTOWN      CLOUDY    65  45  48 CALM      30.13F
FORT DRUM      NOT AVBL
MASSENA        CLOUDY    61  43  51 SW9       30.11S
SARANAC LAKE   CLOUDY    50  40  68 SW3       30.16F
PLATTSBURGH    CLOUDY    61  42  49 E5        30.11S
$$

NYZ001>004-010>016-019>021-250700-
WEST


CITY           SKY/WX    TMP DP  RH WIND       PRES   REMARKS
NIAGARA FALLS  LGT RAIN  63  48  58 S3        30.14F
BUFFALO        LGT RAIN  65  49  56 SE3       30.15F
DUNKIRK        CLOUDY    71  45  39 S8        30.14F
JAMESTOWN      CLOUDY    63  46  55 S6        30.20F
WELLSVILLE     CLOUDY    65  43  44 CALM      30.24S
ROCHESTER      LGT RAIN  67  50  54 W7        30.17R
PENN YAN       CLOUDY    63  51  65 SW5       30.18F
$$

             KEY
       WCI = WIND CHILL INDEX
       VSB = VISIBILITY
       HX  = HEAT INDEX
$$



USA.gov is the U.S. government's official web portal to all federal, state and local government web resources and services.